Regional Weather Roundup
Issued by NWS

Home | Current Version | Previous Version | Graphics & Text | Print | Product List | Glossary Off
Versions: 1 2 3 4 5 6 7 8 9 10 11 12 13 14 15 16 17 18 19 20 21 22 23 24 25 26 27 28 29 30 31 32 33 34 35 36 37 38 39 40 41 42 43 44 45 46 47

000
ASUS43 KDMX 211107
RWRIA

WEATHER ROUNDUP FOR IOWA
NATIONAL WEATHER SERVICE DES MOINES IA
600 AM CDT THU AUG 21 2014

NOTE: "FAIR" INDICATES FEW OR NO CLOUDS BELOW 12,000 FEET WITH NO
SIGNIFICANT WEATHER AND/OR OBSTRUCTIONS TO VISIBILITY.

* - THESE STATIONS ARE NOT NWS STATIONS...THUS NOT UNDER NWS
QUALITY CONTROL.  THEY ALSO DO NOT REPORT WEATHER SUCH
AS PRECIPITATION OR FOG.

IAZ001>003-012>014-020>022-031>034-043>046-211200-
   NORTHWEST IOWA

CITY           SKY/WX    TMP DP  RH WIND       PRES   REMARKS
CARROLL *      LGT RAIN  75  70  83 SW15G21   29.77R
CHEROKEE *     PTCLDY    75  72  88 S8        29.75R
DENISON *      CLEAR     75  70  83 S10       29.76R
LE MARS *      PTCLDY    73  72  94 S5G12     29.74R
ORANGE CITY *  CLEAR     75  70  83 SW12G17   29.73R
SHELDON *      CLEAR     73  72  94 S10G20    29.71R
SIOUX CITY     PTCLDY    77  70  79 SW3       29.74R
SPENCER        MOCLDY    75  70  84 S12       29.73R
STORM LAKE *   CLOUDY    73  73 100 S8G17     29.78R
$$

IAZ055>058-069>071-079>083-090>094-211200-
   SOUTHWEST IOWA

CITY           SKY/WX    TMP DP  RH WIND       PRES   REMARKS
ATLANTIC *     PTCLDY    75  70  83 S8        29.80R
AUDUBON *      CLEAR     77  72  83 S9        29.81R
CLARINDA *     CLEAR     75  70  83 S8        29.82S
COUNCIL BLFS *   N/A     77  70  78 S9        29.78S
CRESTON *      CLEAR     73  70  88 S14G20    29.83S
HARLAN  *      CLEAR     73  70  88 S7        29.83R
LAMONI         PTCLDY    73  68  84 S10       29.85F
RED OAK *      CLOUDY    73  72  94 S7        29.81R
SHENANDOAH *   MOCLDY    75  70  83 SW7       29.81R
$$

IAZ047>049-059>061-072>074-084-211200-
   CENTRAL IOWA

CITY           SKY/WX    TMP DP  RH WIND       PRES   REMARKS
AMES           MOCLDY    74  70  87 S7        29.79S
ANKENY *       PTCLDY    75  72  88 S8        29.80R
CHARITON *     MOCLDY    73  70  88 S9        29.84S
DES MOINES     CLOUDY    77  69  76 S13       29.80S
GRINNELL*      PTCLDY    73  70  88 S7        29.85R
KNOXVILLE *    CLEAR     75  68  78 S10G17    29.82R
MARSHALLTOWN   MOCLDY    74  71  91 S6        29.81R
PELLA *        CLEAR     75  70  83 S3        29.84S
PERRY *        MOCLDY    73  70  88 SW10      29.80R
$$

IAZ004>006-015-016-023>025-035-036-211200-
   NORTH CENTRAL IOWA

CITY           SKY/WX    TMP DP  RH WIND       PRES   REMARKS
ALGONA *       PTCLDY    75  72  88 S12       29.75S
CLARION *      CLEAR     73  73 100 S10       29.77F
ESTHERVILLE    CLOUDY    72  70  93 N5        29.76R
FORT DODGE *   CLOUDY    73  70  88 S12       29.77R
MASON CITY     CLOUDY    71  70  96 SE8       29.81F
FOREST CITY *  CLEAR     72  72 100 SE6       29.79
IOWA FALLS *     N/A     73  70  88 SE9       29.81F
$$

IAZ007>011-017>019-026>030-037>042-050>054-066-211200-
   NORTHEAST IOWA

CITY           SKY/WX    TMP DP  RH WIND       PRES   REMARKS
CEDAR RAPIDS   MOCLDY    73  72  96 S6        29.85S
CHARLES CITY * CLOUDY    72  70  94 SE9       29.84S
CLINTON *      MOCLDY    72  68  88 SE7       29.91R
DECORAH *      CLOUDY    70  68  94 S9        29.87R
DUBUQUE        CLOUDY    71  69  93 E9        29.91R
MONTICELLO *   CLOUDY    72  72 100 CALM      29.87R FOG
OELWEIN *      CLOUDY    72  72 100 S7        29.88R FOG
WATERLOO       CLOUDY    71  70  96 E7        29.82F FOG
$$

IAZ064-065-067-068-078-211200-
   EAST CENTRAL IOWA

CITY           SKY/WX    TMP DP  RH WIND       PRES   REMARKS
DAVENPORT      PTCLDY    71  69  93 S6        29.88F
IOWA CITY      PTCLDY    72  72 100 CALM      29.86R
MT. PLEASANT * CLEAR     72  70  94 S7        29.87F
MUSCATINE *    CLEAR     73  70  88 CALM      29.86S
QUAD CITIES    PTCLDY    73  69  87 VRB3      29.87S
$$

IAZ062-063-075>077-085>089-095>099-211200-
   SOUTHEAST IOWA

CITY           SKY/WX    TMP DP  RH WIND       PRES   REMARKS
BURLINGTON     CLEAR     72  70  93 S8        29.88F
FAIRFIELD *    CLEAR     73  70  88 S7        29.86F
FORT MADISON * CLEAR     75  72  88 S9        29.89S
KEOKUK *       CLEAR     73  70  88 S10       29.88F
OSKALOOSA *      N/A     72  70  94 S7        29.85S
CENTERVILLE *  CLEAR     73  70  88 S8        29.88F
OTTUMWA        CLEAR     73  69  87 S7        29.84F
WASHINGTON *   CLEAR     73  72  94 S8        29.86S
$$

ABBREVIATIONS USED IN REMARKS
   TC - TEMPERATURES IN CELSIUS
  WCI - WIND CHILL INDEX
   HX - HEAT INDEX
  VSB - VISIBILITY
$$



USA.gov is the U.S. government's official web portal to all federal, state and local government web resources and services.